Regional Weather Roundup
Issued by NWS Northern Indiana

Home | Current Version | Previous Version | Graphics & Text | Print | Product List | Glossary On
Versions: 1 2 3 4 5 6 7 8 9 10 11 12 13 14 15 16 17 18 19 20 21 22 23 24 25 26 27 28 29 30 31 32 33 34 35 36 37 38 39 40 41 42 43 44 45 46 47 48 49 50
000
ASUS43 KIWX 140300
RWRIWX

KIWX WEATHER ROUNDUP
NATIONAL WEATHER SERVICE NORTHERN INDIANA
1100 PM EDT SUN JUL 13 2014

NOTE: "FAIR" INDICATES FEW OR NO CLOUDS BELOW 12,000 FEET WITH NO
SIGNIFICANT WEATHER AND/OR OBSTRUCTIONS TO VISIBILITY.

* THESE STATIONS ARE NOT UNDER NWS QUALITY CONTROL. THEY ALSO MAY NOT
  REPORT WEATHER SUCH AS PRECIPITATION OR FOG.

INZ001>027-140400-
NORTHERN INDIANA

CITY           SKY/WX    TMP DP  RH WIND       PRES   REMARKS
GARY*          CLOUDY    79  63  57 W12       29.90R
VALPARAISO     MOCLDY    74  66  76 SW7       29.91S
SOUTH BEND     CLOUDY    75  64  68 SW7       29.91R
GOSHEN         CLEAR     70  63  78 S6        29.92R
ANGOLA*        CLEAR     66  55  68 CALM      29.92S
FORT WAYNE     PTCLDY    70  65  84 CALM      29.93S
PERU/GRISSOM   CLEAR     68  68 100 W3        29.93R

$$
INZ028>050-140400-
CENTRAL INDIANA

CITY           SKY/WX    TMP DP  RH WIND       PRES   REMARKS
LAFAYETTE      CLEAR     69  67  93 CALM      29.93R
KOKOMO*        CLEAR     70  64  83 SW3       29.93S
MUNCIE*        CLEAR     72  67  84 CALM      29.95R
INDIANAPOLIS   MOCLDY    74  69  85 SW5       29.94R

$$
MIZ043>046-050>051-056>058-064>065-071>073-077>080-140400-
SOUTHWEST LOWER MICHIGAN

CITY           SKY/WX    TMP DP  RH WIND       PRES   REMARKS
BATTLE CREEK   MOCLDY    71  62  73 S6        29.90S
BENTON HARBOR  MOCLDY    68  65  90 E5        29.88S
COLDWATER*     CLEAR     69  64  83 CALM      29.92R
HILLSDALE*     CLEAR     63  63  99 CALM      29.93S
HOLLAND        MOCLDY    72  66  81 CALM      29.90R
GRAND RAPIDS   PTCLDY    72  63  73 CALM      29.90R
KALAMAZOO      LGT RAIN  72  63  73 NW3       29.91R
STURGIS*       PTCLDY    66  64  94 S3        29.91R
THREE RIVERS*  CLOUDY    71  66  85 S5        29.91R

$$
OHZ001>008-015>018-024>025-140400-
NORTHWEST OHIO

CITY           SKY/WX    TMP DP  RH WIND       PRES   REMARKS
DEFIANCE       CLEAR     71  64  78 CALM      29.92R
FINDLAY        CLEAR     70  64  81 S5        29.91S
TOLEDO EXPRESS CLEAR     73  63  70 W5        29.91R
TOLEDO METCALF CLEAR     74  62  66 W5        29.91R
LIMA           CLEAR     73  66  78 CALM      29.93S

$$
&&


USA.gov is the U.S. government's official web portal to all federal, state and local government web resources and services.